TimeEST,TemperatureF,Dew PointF,Humidity,Sea Level PressureIn,VisibilityMPH,Wind Direction,Wind SpeedMPH,Gust SpeedMPH,PrecipitationIn,Events,Conditions,WindDirDegrees,DateUTC
12:53 AM,59.0,52.0,78,30.12,10.0,WNW,10.4,-,N/A,,Clear,300,2013-01-18 05:53:00
1:53 AM,57.9,51.1,78,30.12,10.0,WNW,11.5,-,N/A,,Clear,290,2013-01-18 06:53:00
2:53 AM,57.0,50.0,77,30.12,10.0,WNW,9.2,-,N/A,,Clear,300,2013-01-18 07:53:00
3:53 AM,55.9,50.0,80,30.14,10.0,WNW,9.2,-,N/A,,Clear,300,2013-01-18 08:53:00
4:51 AM,55.4,50.0,82,30.14,10.0,WNW,9.2,-,N/A,,Mostly Cloudy,290,2013-01-18 09:51:00
4:53 AM,55.9,50.0,80,30.14,10.0,WNW,9.2,-,N/A,,Mostly Cloudy,290,2013-01-18 09:53:00
5:53 AM,55.9,48.9,77,30.16,10.0,NNW,12.7,20.7,N/A,,Overcast,330,2013-01-18 10:53:00
6:53 AM,54.0,46.9,77,30.19,10.0,North,12.7,-,N/A,,Overcast,360,2013-01-18 11:53:00
7:53 AM,53.1,46.0,77,30.21,10.0,NW,12.7,-,N/A,,Mostly Cloudy,320,2013-01-18 12:53:00
8:02 AM,53.6,46.4,77,30.21,10.0,NW,11.5,-,N/A,,Mostly Cloudy,320,2013-01-18 13:02:00
8:53 AM,54.0,46.0,75,30.24,10.0,NNW,12.7,-,N/A,,Mostly Cloudy,330,2013-01-18 13:53:00
9:53 AM,57.0,46.9,69,30.25,10.0,NW,9.2,-,N/A,,Scattered Clouds,310,2013-01-18 14:53:00
10:53 AM,59.0,48.0,67,30.25,10.0,WNW,9.2,-,N/A,,Partly Cloudy,300,2013-01-18 15:53:00
11:53 AM,62.1,48.9,62,30.22,10.0,NW,8.1,-,N/A,,Scattered Clouds,310,2013-01-18 16:53:00
12:53 PM,66.0,50.0,56,30.19,10.0,North,8.1,-,N/A,,Scattered Clouds,360,2013-01-18 17:53:00
1:53 PM,66.9,52.0,59,30.17,10.0,NE,5.8,-,N/A,,Mostly Cloudy,50,2013-01-18 18:53:00
2:53 PM,68.0,57.9,70,30.16,10.0,NE,11.5,-,N/A,,Mostly Cloudy,40,2013-01-18 19:53:00
3:53 PM,69.1,59.0,70,30.16,10.0,NNE,15.0,-,N/A,,Overcast,30,2013-01-18 20:53:00
4:53 PM,70.0,60.1,71,30.17,10.0,NNE,9.2,-,N/A,,Mostly Cloudy,20,2013-01-18 21:53:00
5:53 PM,70.0,57.9,65,30.18,10.0,ENE,15.0,21.9,0.00,,Overcast,60,2013-01-18 22:53:00
6:53 PM,70.0,55.9,61,30.19,10.0,NE,15.0,-,N/A,,Overcast,50,2013-01-18 23:53:00
7:53 PM,70.0,55.9,61,30.20,10.0,NE,13.8,-,N/A,,Overcast,50,2013-01-19 00:53:00
8:53 PM,70.0,55.0,59,30.20,10.0,ENE,13.8,-,N/A,,Overcast,70,2013-01-19 01:53:00
9:53 PM,70.0,55.0,59,30.20,10.0,NE,12.7,-,N/A,,Overcast,50,2013-01-19 02:53:00
10:53 PM,70.0,55.0,59,30.20,10.0,ENE,11.5,-,N/A,,Overcast,60,2013-01-19 03:53:00
11:53 PM,71.1,55.9,59,30.19,10.0,ENE,9.2,18.4,N/A,,Overcast,70,2013-01-19 04:53:00